AIC111 VIDP-EGLL

Flight info

Callsign AIC111
Flight time N/A
Altitude 32000
Route DUDUM7C DUDUM Q2 NIKOT R462 UUD J61 LAXOM L639 RASKI N881 KIPOL L444 TOLDA M628 TULBU G652 TOKRA DCT ALROK DCT BOSOB DCT ITRUX Y511 PMA Z712 WEJ L677 CVO L617 TANSA UL617 SIT DCT TSL UM987 ATFIR N133 LOMOS DCT SAT DCT PITOK DCT SLC DCT MAKAL DCT HDO DCT KOSIX L986 SAS L980 LOGAN LOGAN2H
Aircraft B77W/H-SDE1E2E3FGHIJ2J3J4J5M1RWXY/LB1D1

Departure

Time 2026-05-04 00:22
Airport Indira Gandhi International Airport (VIDP)

Arrival

Time N/A
Airport London Heathrow Airport (EGLL)
Time Latitude Longitude Altitude Speed Heading
2026-05-03 23:34 28.55254 77.08216 756 ft 0 kts 149°
2026-05-04 00:09 28.55262 77.08210 750 ft 4 kts 149°
2026-05-04 00:09 28.55285 77.08195 751 ft 3 kts 149°
2026-05-04 00:09 28.55305 77.08184 750 ft 4 kts 171°
2026-05-04 00:09 28.55322 77.08183 750 ft 4 kts 213°
2026-05-04 00:10 28.55336 77.08201 750 ft 4 kts 243°
2026-05-04 00:10 28.55347 77.08226 750 ft 1 kts 240°
2026-05-04 00:10 28.55348 77.08227 750 ft 0 kts 240°
2026-05-04 00:13 28.55339 77.08209 750 ft 7 kts 240°
2026-05-04 00:14 28.55291 77.08116 751 ft 19 kts 240°
2026-05-04 00:14 28.55221 77.07980 750 ft 19 kts 239°
2026-05-04 00:14 28.55122 77.07894 751 ft 19 kts 195°
2026-05-04 00:14 28.55016 77.07906 752 ft 16 kts 123°
2026-05-04 00:15 28.54981 77.08025 754 ft 16 kts 105°
2026-05-04 00:15 28.54952 77.08148 753 ft 16 kts 104°
2026-05-04 00:15 28.54924 77.08270 752 ft 16 kts 104°
2026-05-04 00:15 28.54896 77.08394 751 ft 16 kts 104°
2026-05-04 00:16 28.54866 77.08524 752 ft 18 kts 104°
2026-05-04 00:16 28.54831 77.08678 752 ft 23 kts 105°
2026-05-04 00:16 28.54791 77.08848 753 ft 21 kts 104°
2026-05-04 00:16 28.54753 77.09014 751 ft 21 kts 105°
2026-05-04 00:17 28.54715 77.09176 754 ft 22 kts 104°
2026-05-04 00:17 28.54678 77.09339 753 ft 22 kts 104°
2026-05-04 00:17 28.54641 77.09499 752 ft 21 kts 104°
2026-05-04 00:17 28.54605 77.09655 753 ft 21 kts 104°
2026-05-04 00:18 28.54567 77.09821 752 ft 21 kts 104°
2026-05-04 00:18 28.54528 77.09992 755 ft 23 kts 105°
2026-05-04 00:18 28.54487 77.10166 754 ft 23 kts 104°
2026-05-04 00:18 28.54446 77.10341 755 ft 23 kts 104°
2026-05-04 00:19 28.54407 77.10516 752 ft 23 kts 104°
2026-05-04 00:19 28.54365 77.10690 752 ft 23 kts 105°
2026-05-04 00:19 28.54324 77.10865 752 ft 23 kts 105°
2026-05-04 00:19 28.54285 77.11040 755 ft 23 kts 102°
2026-05-04 00:20 28.54234 77.11171 751 ft 17 kts 149°
2026-05-04 00:20 28.54123 77.11155 751 ft 16 kts 205°
2026-05-04 00:20 28.54101 77.11068 752 ft 0 kts 282°
2026-05-04 00:21 28.54105 77.11052 752 ft 13 kts 282°
2026-05-04 00:21 28.54184 77.10676 757 ft 85 kts 284°
2026-05-04 00:21 28.54379 77.09769 752 ft 151 kts 283°
2026-05-04 00:21 28.54670 77.08386 755 ft 206 kts 284°
2026-05-04 00:22 28.55064 77.06753 1226 ft 217 kts 285°
2026-05-04 00:22 28.55499 77.05052 1824 ft 223 kts 286°
2026-05-04 00:22 28.55542 77.03389 2520 ft 207 kts 245°
2026-05-04 00:22 28.54659 77.02177 2883 ft 196 kts 200°
2026-05-04 00:23 28.53390 77.02109 3215 ft 179 kts 160°
2026-05-04 00:23 28.52166 77.02373 3418 ft 189 kts 192°
2026-05-04 00:23 28.50958 77.01796 3695 ft 193 kts 196°
2026-05-04 00:23 28.49667 77.01277 3963 ft 202 kts 194°
2026-05-04 00:24 28.48259 77.00752 4098 ft 223 kts 193°
2026-05-04 00:24 28.46726 77.00181 4330 ft 240 kts 195°
2026-05-04 00:24 28.45094 76.99562 4653 ft 252 kts 196°
2026-05-04 00:24 28.43421 76.98921 5199 ft 256 kts 197°
2026-05-04 00:25 28.41716 76.98262 5743 ft 261 kts 198°
2026-05-04 00:25 28.39973 76.97586 6351 ft 262 kts 199°
2026-05-04 00:25 28.38240 76.96911 6879 ft 266 kts 200°
2026-05-04 00:25 28.36482 76.96225 7405 ft 269 kts 200°
2026-05-04 00:26 28.34701 76.95530 7922 ft 272 kts 201°
2026-05-04 00:26 28.32878 76.94818 8445 ft 275 kts 201°
2026-05-04 00:26 28.31056 76.94106 8983 ft 278 kts 201°
2026-05-04 00:26 28.29216 76.93388 9494 ft 282 kts 201°
2026-05-04 00:27 28.27347 76.92660 9959 ft 286 kts 202°
2026-05-04 00:27 28.25428 76.91907 10156 ft 302 kts 203°
2026-05-04 00:27 28.23561 76.90765 10247 ft 313 kts 219°
2026-05-04 00:27 28.21804 76.89178 10406 ft 330 kts 221°
2026-05-04 00:28 28.19944 76.87475 10541 ft 349 kts 221°
2026-05-04 00:28 28.18034 76.85741 10822 ft 361 kts 220°
2026-05-04 00:28 28.16020 76.83932 11270 ft 370 kts 220°
2026-05-04 00:28 28.13980 76.82116 11842 ft 374 kts 220°
2026-05-04 00:29 28.11933 76.80304 12545 ft 376 kts 220°
2026-05-04 00:29 28.09860 76.78473 13198 ft 379 kts 220°
2026-05-04 00:29 28.07764 76.76624 13783 ft 383 kts 220°
2026-05-04 00:29 28.05656 76.74767 14351 ft 386 kts 220°
2026-05-04 00:30 28.03529 76.72892 14962 ft 388 kts 219°